Location: Sternwarte ZA, Rosenfeld-Brittheim
(48.2889°N, 8.6789°E)
Time: 14:47:58
(UTC+01:00)

Envisat - Visible Passes

Search period start: 23 January 2018 00:00
Search period end: 02 February 2018 00:00
Orbit: 764 x 766 km, 98.2° (Epoch: 23 January)

Date Brightness Start Highest point End Pass type
(mag) Time Alt. Az. Time Alt. Az. Time Alt. Az.
23 Jan 4.8 17:56:11 10° ENE 17:57:47 11° NE 17:59:23 10° NNE visible
23 Jan 2.9 19:35:58 64° ENE 19:35:58 64° ENE 19:40:54 10° N visible
23 Jan 5.4 21:16:09 18° WNW 21:16:09 18° WNW 21:18:55 10° NW visible
24 Jan 3.6 18:58:32 31° E 18:59:19 33° ENE 19:03:50 10° N visible
24 Jan 4.3 20:38:43 37° W 20:38:43 37° W 20:43:01 10° NNW visible
25 Jan 4.4 18:21:06 15° E 18:22:59 18° ENE 18:26:19 10° NNE visible
25 Jan 3.0 20:01:17 78° SW 20:01:25 79° WSW 20:06:32 10° NNW visible
25 Jan 5.9 21:41:28 11° W 21:41:28 11° W 21:42:44 10° WNW visible
26 Jan 3.1 19:23:50 46° ESE 19:24:45 52° ENE 19:29:42 10° N visible
26 Jan 5.1 21:04:01 23° W 21:04:04 23° W 21:08:08 10° NW visible
27 Jan 6.0 07:26:38 10° ENE 07:29:07 14° E 07:31:36 10° ESE visible
27 Jan 3.9 18:46:24 22° E 18:48:17 27° ENE 18:52:31 10° N visible
27 Jan 3.8 20:26:34 45° WSW 20:27:05 47° W 20:32:00 10° NNW visible
28 Jan 4.6 18:09:14 10° E 18:12:00 15° NE 18:14:47 10° NNE visible
28 Jan 2.8 19:49:07 55° SSE 19:50:17 85° ENE 19:55:24 10° NNW visible
28 Jan 5.7 21:29:18 14° W 21:29:59 14° W 21:32:38 10° NW visible
29 Jan 3.3 19:11:38 29° ESE 19:13:40 43° ENE 19:18:28 10° N visible
29 Jan 4.8 20:51:49 27° WSW 20:52:50 29° W 20:57:14 10° NW visible
30 Jan 6.4 07:16:44 10° ENE 07:17:49 11° E 07:18:55 10° E visible
30 Jan 4.1 18:34:10 13° ESE 18:37:16 23° ENE 18:41:10 10° N visible
30 Jan 3.5 20:14:21 41° SSW 20:15:54 58° W 20:20:57 10° NNW visible
31 Jan 4.7 17:59:02 10° ENE 18:01:02 12° NE 18:03:03 10° NNE visible
31 Jan 2.8 19:36:52 33° SSE 19:39:10 70° ENE 19:44:15 10° N visible
31 Jan 5.5 21:17:03 15° WSW 21:18:42 18° W 21:22:04 10° NW visible
01 Feb 3.5 18:59:22 17° ESE 19:02:36 35° ENE 19:07:13 10° N visible
01 Feb 4.4 20:39:34 25° SW 20:41:37 35° W 20:46:17 10° NNW visible
